Flag for U.S.A. Weather past 2 weeks in Glendale, Arizona, U.S.A.

Now
94 °F

Clear.


Feels Like: 91 °F
Forecast: 85 / 107 °F
Wind: No wind

Location: Phoenix-Deer Valley Municipal Airport

Current Time: Aug 28, 2015 at 11:40:42 PM

Latest Report: Aug 28, 2015 at 10:53 PM


Visibility: 10 mi

Pressure: 29.73 "Hg

Humidity: 23%

Dew point: 51 °F

Location of GlendaleLocation

Historic Weather in Glendale — Graph

°F

Glendale temperature yesterday

Maximum temperature yesterday: 104 °F (at 1:53 PM)
Minimum temperature yesterday: 85 °F (at 5:53 AM)
Average temperature yesterday: 92 °F

Past Weeks' High & Low Weather Summary

 TemperatureHumidityPressure
High111 °F (Aug 15, 3:53 PM)63% (Aug 25, 8:53 PM)29.95 "Hg (Aug 25, 8:53 PM)
Low81 °F (Aug 28, 5:53 AM)14% (Aug 14, 2:53 PM)29.62 "Hg (Aug 18, 6:53 PM)
Average94 °F31%29.78 "Hg
* Reported Aug 13 9:53 PM — Aug 28 9:53 PM, Glendale, Weather by CustomWeather, © 2015

Note: Actual official high and low records may vary slightly from our data, if they occured in-between our weather recording intervals... More about our weather records

Advertising

Glendale weather history for previous 24 hours

 ConditionsComfort  
Time TempWeatherWind HumidityBarometerVisibility
9:53 PM
Fri, Aug 28
95 °FClear.No wind22%29.73 "Hg10 mi
8:53 PM99 °FClear.3 mph20%29.72 "Hg10 mi
7:53 PM101 °FClear.8 mph19%29.70 "Hg10 mi
6:53 PM103 °FSunny.7 mph18%29.68 "Hg10 mi
5:53 PM105 °FSunny.7 mph17%29.68 "Hg10 mi
4:53 PM105 °FSunny.9 mph18%29.69 "Hg10 mi
3:53 PM105 °FSunny.10 mph18%29.70 "Hg10 mi
1:53 PM101 °FSunny.No wind22%29.75 "Hg10 mi
12:53 PM100 °FSunny.3 mph25%29.78 "Hg10 mi
11:53 AM98 °FSunny.3 mph27%29.82 "Hg10 mi
10:53 AM95 °FSunny.3 mph31%29.85 "Hg10 mi
9:53 AM90 °FSunny.No wind38%29.86 "Hg10 mi
8:53 AM88 °FSunny.No wind40%29.87 "Hg10 mi
7:53 AM85 °FSunny.3 mph45%29.87 "Hg10 mi
6:53 AM84 °FSunny.No wind45%29.87 "Hg10 mi
5:53 AM81 °FClear.No wind47%29.85 "Hg10 mi
4:53 AM82 °FClear.6 mph48%29.83 "Hg10 mi
3:53 AM83 °FClear.3 mph46%29.83 "Hg10 mi
2:53 AM84 °FClear.5 mph45%29.83 "Hg10 mi
1:53 AM86 °FClear.3 mph39%29.83 "Hg10 mi
12:53 AM86 °FClear.5 mph42%29.86 "Hg10 mi
11:53 PM
Thu, Aug 27
87 °FClear.No wind43%29.87 "Hg10 mi
Weather by CustomWeather, © 2015

See weather overviewHow to use our weather pages